Time,TemperatureF,DewpointF,PressureIn,WindDirection,WindDirectionDegrees,WindSpeedMPH,WindSpeedGustMPH,Humidity,HourlyPrecipIn,Conditions,Clouds,dailyrainin,SoftwareType,DateUTC
2013-04-09 00:00:00,63.7,59.1,29.89,ESE,123,4.0,4.0,85,0.00,,,0.00,Wunderground v.1.15,2013-04-09 05:00:00,
2013-04-09 00:05:00,63.5,58.9,29.90,SE,132,4.0,4.0,85,0.00,,,0.00,Wunderground v.1.15,2013-04-09 05:05:00,
2013-04-09 00:10:00,63.5,58.9,29.90,SE,136,4.0,4.0,85,0.00,,,0.00,Wunderground v.1.15,2013-04-09 05:10:00,
2013-04-09 00:15:00,63.5,58.9,29.90,SE,135,5.0,7.0,85,0.00,,,0.00,Wunderground v.1.15,2013-04-09 05:15:00,
2013-04-09 00:20:00,63.5,58.9,29.90,SE,138,7.0,8.0,85,0.00,,,0.00,Wunderground v.1.15,2013-04-09 05:20:00,
2013-04-09 00:30:00,63.8,59.2,29.90,SE,138,7.0,10.0,85,0.00,,,0.00,Wunderground v.1.15,2013-04-09 05:30:00,
2013-04-09 00:35:00,64.1,59.2,29.90,SE,136,8.0,10.0,84,0.00,,,0.00,Wunderground v.1.15,2013-04-09 05:35:00,
2013-04-09 00:40:00,64.1,59.2,29.89,SE,136,8.0,8.0,84,0.00,,,0.00,Wunderground v.1.15,2013-04-09 05:40:00,
2013-04-09 00:45:00,64.2,59.3,29.89,SE,132,8.0,8.0,84,0.00,,,0.00,Wunderground v.1.15,2013-04-09 05:45:00,
2013-04-09 00:50:00,64.2,58.9,29.89,SE,132,9.0,10.0,83,0.00,,,0.00,Wunderground v.1.15,2013-04-09 05:50:00,
2013-04-09 00:55:00,64.1,58.8,29.89,SE,139,9.0,10.0,83,0.00,,,0.00,Wunderground v.1.15,2013-04-09 05:55:00,
2013-04-09 01:00:00,64.0,58.7,29.89,SSE,159,9.0,9.0,83,0.00,,,0.00,Wunderground v.1.15,2013-04-09 06:00:00,
2013-04-09 01:10:00,63.8,58.5,29.88,SE,134,8.0,9.0,83,0.00,,,0.00,Wunderground v.1.15,2013-04-09 06:10:00,
2013-04-09 01:15:00,63.5,58.6,29.88,ESE,117,8.0,9.0,84,0.00,,,0.00,Wunderground v.1.15,2013-04-09 06:15:00,
2013-04-09 01:20:00,63.3,58.4,29.89,SE,139,8.0,9.0,84,0.00,,,0.00,Wunderground v.1.15,2013-04-09 06:20:00,
2013-04-09 01:25:00,63.4,58.5,29.89,SE,132,8.0,9.0,84,0.00,,,0.00,Wunderground v.1.15,2013-04-09 06:25:00,
2013-04-09 01:35:00,63.0,58.4,29.88,SE,127,7.0,8.0,85,0.00,,,0.00,Wunderground v.1.15,2013-04-09 06:35:00,
2013-04-09 01:40:00,62.9,58.3,29.88,SE,131,8.0,8.0,85,0.00,,,0.00,Wunderground v.1.15,2013-04-09 06:40:00,
2013-04-09 01:45:00,62.7,58.1,29.87,SE,124,8.0,9.0,85,0.00,,,0.00,Wunderground v.1.15,2013-04-09 06:45:00,
2013-04-09 01:50:00,62.7,58.1,29.87,SE,136,8.0,8.0,85,0.00,,,0.00,Wunderground v.1.15,2013-04-09 06:50:00,
2013-04-09 02:00:00,62.5,57.9,29.87,SE,130,8.0,8.0,85,0.00,,,0.00,Wunderground v.1.15,2013-04-09 07:00:00,
2013-04-09 02:10:00,62.2,58.0,29.86,SE,132,7.0,7.0,86,0.00,,,0.00,Wunderground v.1.15,2013-04-09 07:10:00,
2013-04-09 02:15:00,62.2,57.6,29.86,SSE,155,7.0,7.0,85,0.00,,,0.00,Wunderground v.1.15,2013-04-09 07:15:00,
2013-04-09 02:20:00,62.1,57.5,29.85,SE,127,7.0,7.0,85,0.00,,,0.00,Wunderground v.1.15,2013-04-09 07:20:00,
2013-04-09 02:25:00,62.1,57.5,29.85,ESE,117,6.0,7.0,85,0.00,,,0.00,Wunderground v.1.15,2013-04-09 07:25:00,
2013-04-09 02:30:00,61.9,57.7,29.85,ESE,122,6.0,6.0,86,0.00,,,0.00,Wunderground v.1.15,2013-04-09 07:30:00,
2013-04-09 02:35:00,61.8,57.6,29.86,SE,129,5.0,6.0,86,0.00,,,0.00,Wunderground v.1.15,2013-04-09 07:35:00,
2013-04-09 02:45:00,61.6,57.4,29.86,ESE,113,4.0,5.0,86,0.00,,,0.00,Wunderground v.1.15,2013-04-09 07:45:00,
2013-04-09 02:50:00,61.3,57.1,29.86,ESE,117,4.0,5.0,86,0.00,,,0.00,Wunderground v.1.15,2013-04-09 07:50:00,
2013-04-09 02:55:00,61.0,57.1,29.86,SE,139,4.0,5.0,87,0.00,,,0.00,Wunderground v.1.15,2013-04-09 07:55:00,
2013-04-09 03:00:00,60.8,56.9,29.86,ESE,112,4.0,4.0,87,0.00,,,0.00,Wunderground v.1.15,2013-04-09 08:00:00,
2013-04-09 03:05:00,60.6,56.7,29.86,ESE,107,4.0,4.0,87,0.00,,,0.00,Wunderground v.1.15,2013-04-09 08:05:00,
2013-04-09 03:10:00,60.4,56.5,29.86,ESE,113,4.0,4.0,87,0.00,,,0.00,Wunderground v.1.15,2013-04-09 08:10:00,
2013-04-09 03:15:00,60.5,56.9,29.85,East,89,4.0,4.0,88,0.00,,,0.00,Wunderground v.1.15,2013-04-09 08:15:00,
2013-04-09 03:20:00,60.7,57.1,29.85,East,92,5.0,5.0,88,0.00,,,0.00,Wunderground v.1.15,2013-04-09 08:20:00,
2013-04-09 03:25:00,60.9,57.3,29.86,ESE,103,5.0,5.0,88,0.00,,,0.00,Wunderground v.1.15,2013-04-09 08:25:00,
2013-04-09 03:30:00,61.0,57.1,29.85,East,97,5.0,5.0,87,0.00,,,0.00,Wunderground v.1.15,2013-04-09 08:30:00,
2013-04-09 03:35:00,61.1,57.5,29.85,ESE,107,5.0,5.0,88,0.00,,,0.00,Wunderground v.1.15,2013-04-09 08:35:00,
2013-04-09 03:40:00,61.2,57.3,29.85,East,94,5.0,6.0,87,0.00,,,0.00,Wunderground v.1.15,2013-04-09 08:40:00,
2013-04-09 03:45:00,61.3,57.4,29.85,East,100,5.0,6.0,87,0.00,,,0.00,Wunderground v.1.15,2013-04-09 08:45:00,
2013-04-09 03:50:00,61.3,57.4,29.85,East,90,5.0,5.0,87,0.00,,,0.00,Wunderground v.1.15,2013-04-09 08:50:00,
2013-04-09 03:55:00,61.2,57.6,29.86,East,101,5.0,5.0,88,0.00,,,0.00,Wunderground v.1.15,2013-04-09 08:55:00,
2013-04-09 04:00:00,61.1,57.5,29.86,SE,124,5.0,5.0,88,0.00,,,0.00,Wunderground v.1.15,2013-04-09 09:00:00,
2013-04-09 04:05:00,60.9,57.3,29.86,SE,127,5.0,5.0,88,0.00,,,0.00,Wunderground v.1.15,2013-04-09 09:05:00,
2013-04-09 04:10:00,60.8,57.2,29.86,ESE,113,4.0,5.0,88,0.00,,,0.00,Wunderground v.1.15,2013-04-09 09:10:00,
2013-04-09 04:15:00,60.8,57.5,29.86,ESE,107,4.0,5.0,89,0.00,,,0.00,Wunderground v.1.15,2013-04-09 09:15:00,
2013-04-09 04:20:00,60.8,57.5,29.86,East,99,4.0,5.0,89,0.00,,,0.00,Wunderground v.1.15,2013-04-09 09:20:00,
2013-04-09 04:25:00,60.8,57.5,29.86,East,97,5.0,5.0,89,0.00,,,0.00,Wunderground v.1.15,2013-04-09 09:25:00,
2013-04-09 04:30:00,60.7,57.4,29.86,East,92,5.0,5.0,89,0.00,,,0.00,Wunderground v.1.15,2013-04-09 09:30:00,
2013-04-09 04:35:00,60.7,57.4,29.86,East,95,5.0,6.0,89,0.00,,,0.00,Wunderground v.1.15,2013-04-09 09:35:00,
2013-04-09 04:40:00,60.7,57.4,29.85,East,89,6.0,7.0,89,0.00,,,0.00,Wunderground v.1.15,2013-04-09 09:40:00,
2013-04-09 04:45:00,60.8,57.5,29.86,East,93,6.0,7.0,89,0.00,,,0.00,Wunderground v.1.15,2013-04-09 09:45:00,
2013-04-09 04:50:00,60.8,57.2,29.86,East,97,6.0,6.0,88,0.00,,,0.00,Wunderground v.1.15,2013-04-09 09:50:00,
2013-04-09 04:55:00,60.7,57.4,29.87,ESE,105,6.0,6.0,89,0.00,,,0.00,Wunderground v.1.15,2013-04-09 09:55:00,
2013-04-09 05:00:00,60.6,57.3,29.86,East,82,5.0,6.0,89,0.00,,,0.00,Wunderground v.1.15,2013-04-09 10:00:00,
2013-04-09 05:05:00,60.6,57.3,29.85,East,91,6.0,6.0,89,0.00,,,0.00,Wunderground v.1.15,2013-04-09 10:05:00,
2013-04-09 05:10:00,60.7,57.4,29.86,East,94,6.0,6.0,89,0.00,,,0.00,Wunderground v.1.15,2013-04-09 10:10:00,
2013-04-09 05:15:00,60.7,57.4,29.86,East,97,6.0,6.0,89,0.00,,,0.00,Wunderground v.1.15,2013-04-09 10:15:00,
2013-04-09 05:20:00,60.7,57.4,29.86,East,91,5.0,6.0,89,0.00,,,0.00,Wunderground v.1.15,2013-04-09 10:20:00,
2013-04-09 05:25:00,60.6,57.3,29.86,East,87,5.0,6.0,89,0.00,,,0.00,Wunderground v.1.15,2013-04-09 10:25:00,
2013-04-09 05:30:00,60.5,57.2,29.85,East,101,6.0,7.0,89,0.00,,,0.00,Wunderground v.1.15,2013-04-09 10:30:00,
2013-04-09 05:35:00,60.5,57.2,29.86,ESE,102,6.0,7.0,89,0.00,,,0.00,Wunderground v.1.15,2013-04-09 10:35:00,
2013-04-09 05:40:00,60.4,57.1,29.86,ESE,102,6.0,6.0,89,0.00,,,0.00,Wunderground v.1.15,2013-04-09 10:40:00,
2013-04-09 05:50:00,60.5,57.2,29.86,ESE,108,6.0,6.0,89,0.00,,,0.00,Wunderground v.1.15,2013-04-09 10:50:00,
2013-04-09 05:55:00,60.6,57.3,29.86,ESE,112,7.0,7.0,89,0.00,,,0.00,Wunderground v.1.15,2013-04-09 10:55:00,
2013-04-09 06:00:00,60.7,57.4,29.86,ESE,109,6.0,6.0,89,0.00,,,0.00,Wunderground v.1.15,2013-04-09 11:00:00,
2013-04-09 06:05:00,60.6,57.3,29.86,ESE,104,6.0,6.0,89,0.00,,,0.00,Wunderground v.1.15,2013-04-09 11:05:00,
2013-04-09 06:10:00,60.5,57.2,29.86,ESE,110,5.0,5.0,89,0.00,,,0.00,Wunderground v.1.15,2013-04-09 11:10:00,
2013-04-09 06:15:00,60.4,57.1,29.86,ESE,114,5.0,5.0,89,0.00,,,0.00,Wunderground v.1.15,2013-04-09 11:15:00,
2013-04-09 06:20:00,60.3,57.4,29.86,ESE,107,5.0,5.0,90,0.00,,,0.00,Wunderground v.1.15,2013-04-09 11:20:00,
2013-04-09 06:25:00,60.3,57.4,29.86,ESE,120,5.0,5.0,90,0.00,,,0.00,Wunderground v.1.15,2013-04-09 11:25:00,
2013-04-09 06:30:00,60.4,57.5,29.86,ESE,123,5.0,5.0,90,0.00,,,0.00,Wunderground v.1.15,2013-04-09 11:30:00,
2013-04-09 06:35:00,60.4,57.5,29.86,SE,127,5.0,5.0,90,0.00,,,0.00,Wunderground v.1.15,2013-04-09 11:35:00,
2013-04-09 06:40:00,60.4,57.5,29.86,ESE,110,5.0,5.0,90,0.00,,,0.00,Wunderground v.1.15,2013-04-09 11:40:00,
2013-04-09 06:45:00,60.4,57.5,29.86,ESE,110,6.0,7.0,90,0.00,,,0.00,Wunderground v.1.15,2013-04-09 11:45:00,
2013-04-09 06:50:00,60.5,57.6,29.86,ESE,112,6.0,7.0,90,0.00,,,0.00,Wunderground v.1.15,2013-04-09 11:50:00,
2013-04-09 06:55:00,60.7,57.4,29.86,ESE,113,7.0,7.0,89,0.00,,,0.00,Wunderground v.1.15,2013-04-09 11:55:00,
2013-04-09 07:00:00,60.9,57.6,29.86,SE,124,7.0,7.0,89,0.00,,,0.00,Wunderground v.1.15,2013-04-09 12:00:00,
2013-04-09 07:05:00,61.1,57.8,29.86,SE,131,7.0,9.0,89,0.00,,,0.00,Wunderground v.1.15,2013-04-09 12:05:00,
2013-04-09 07:10:00,61.3,58.0,29.86,ESE,105,7.0,7.0,89,0.00,,,0.00,Wunderground v.1.15,2013-04-09 12:10:00,
2013-04-09 07:15:00,61.5,57.9,29.86,ESE,116,7.0,9.0,88,0.00,,,0.00,Wunderground v.1.15,2013-04-09 12:15:00,
2013-04-09 07:20:00,62.0,58.1,29.86,ESE,122,7.0,8.0,87,0.00,,,0.00,Wunderground v.1.15,2013-04-09 12:20:00,
2013-04-09 07:30:00,62.5,58.3,29.86,SE,132,8.0,8.0,86,0.00,,,0.00,Wunderground v.1.15,2013-04-09 12:30:00,
2013-04-09 07:35:00,62.7,58.5,29.86,SE,127,9.0,9.0,86,0.00,,,0.00,Wunderground v.1.15,2013-04-09 12:35:00,
2013-04-09 07:40:00,62.8,58.5,29.86,SE,127,9.0,9.0,86,0.00,,,0.00,Wunderground v.1.15,2013-04-09 12:40:00,
2013-04-09 07:45:00,62.9,58.3,29.85,SE,124,9.0,11.0,85,0.00,,,0.00,Wunderground v.1.15,2013-04-09 12:45:00,
2013-04-09 07:55:00,63.0,58.4,29.85,East,100,9.0,11.0,85,0.00,,,0.00,Wunderground v.1.15,2013-04-09 12:55:00,
2013-04-09 08:00:00,63.0,58.4,29.86,ESE,120,9.0,9.0,85,0.00,,,0.00,Wunderground v.1.15,2013-04-09 13:00:00,
2013-04-09 08:05:00,63.0,58.4,29.86,ESE,117,9.0,9.0,85,0.00,,,0.00,Wunderground v.1.15,2013-04-09 13:05:00,
2013-04-09 08:10:00,63.0,58.7,29.85,SE,127,9.0,9.0,86,0.00,,,0.00,Wunderground v.1.15,2013-04-09 13:10:00,
2013-04-09 08:15:00,63.0,58.4,29.86,SE,143,8.0,9.0,85,0.00,,,0.00,Wunderground v.1.15,2013-04-09 13:15:00,
2013-04-09 08:20:00,63.0,58.4,29.86,SE,132,8.0,8.0,85,0.00,,,0.00,Wunderground v.1.15,2013-04-09 13:20:00,
2013-04-09 08:25:00,63.1,58.5,29.86,SE,131,8.0,8.0,85,0.00,,,0.00,Wunderground v.1.15,2013-04-09 13:25:00,
2013-04-09 08:30:00,63.2,58.6,29.86,SE,134,8.0,9.0,85,0.00,,,0.00,Wunderground v.1.15,2013-04-09 13:30:00,
2013-04-09 08:35:00,63.3,58.4,29.85,SE,141,9.0,10.0,84,0.00,,,0.00,Wunderground v.1.15,2013-04-09 13:35:00,
2013-04-09 08:40:00,63.3,58.7,29.85,SSE,158,9.0,11.0,85,0.00,,,0.00,Wunderground v.1.15,2013-04-09 13:40:00,
2013-04-09 08:45:00,63.3,58.7,29.85,ESE,108,8.0,11.0,85,0.00,,,0.00,Wunderground v.1.15,2013-04-09 13:45:00,
2013-04-09 08:50:00,63.3,58.7,29.85,SSE,166,8.0,10.0,85,0.00,,,0.00,Wunderground v.1.15,2013-04-09 13:50:00,
2013-04-09 08:55:00,63.3,58.7,29.85,SSE,158,9.0,10.0,85,0.00,,,0.00,Wunderground v.1.15,2013-04-09 13:55:00,
2013-04-09 09:00:00,63.3,58.7,29.85,SE,139,9.0,11.0,85,0.00,,,0.00,Wunderground v.1.15,2013-04-09 14:00:00,
2013-04-09 09:05:00,63.4,58.8,29.85,SE,137,9.0,11.0,85,0.00,,,0.00,Wunderground v.1.15,2013-04-09 14:05:00,
2013-04-09 09:10:00,63.5,58.9,29.84,SE,136,9.0,9.0,85,0.00,,,0.00,Wunderground v.1.15,2013-04-09 14:10:00,
2013-04-09 09:15:00,63.6,59.0,29.84,SE,140,10.0,10.0,85,0.00,,,0.00,Wunderground v.1.15,2013-04-09 14:15:00,
2013-04-09 09:20:00,63.9,59.0,29.84,SSE,160,10.0,10.0,84,0.00,,,0.00,Wunderground v.1.15,2013-04-09 14:20:00,
2013-04-09 09:25:00,64.2,59.3,29.84,SE,135,10.0,11.0,84,0.00,,,0.00,Wunderground v.1.15,2013-04-09 14:25:00,
2013-04-09 09:30:00,64.6,59.7,29.84,SSE,148,11.0,11.0,84,0.00,,,0.00,Wunderground v.1.15,2013-04-09 14:30:00,
2013-04-09 09:35:00,65.0,60.0,29.83,SE,137,12.0,14.0,84,0.00,,,0.00,Wunderground v.1.15,2013-04-09 14:35:00,
2013-04-09 09:40:00,65.2,59.9,29.83,SE,139,12.0,12.0,83,0.00,,,0.00,Wunderground v.1.15,2013-04-09 14:40:00,
2013-04-09 09:50:00,65.9,60.2,29.83,SSE,162,13.0,13.0,82,0.00,,,0.00,Wunderground v.1.15,2013-04-09 14:50:00,
2013-04-09 09:55:00,66.2,60.5,29.83,SSE,158,13.0,14.0,82,0.00,,,0.00,Wunderground v.1.15,2013-04-09 14:55:00,
2013-04-09 10:00:00,66.6,60.9,29.83,SSE,167,12.0,13.0,82,0.00,,,0.00,Wunderground v.1.15,2013-04-09 15:00:00,
2013-04-09 10:05:00,67.0,61.3,29.83,SE,134,12.0,13.0,82,0.00,,,0.00,Wunderground v.1.15,2013-04-09 15:05:00,
2013-04-09 10:10:00,67.9,62.2,29.82,SSE,166,13.0,13.0,82,0.00,,,0.00,Wunderground v.1.15,2013-04-09 15:10:00,
2013-04-09 10:15:00,68.7,61.6,29.82,SSE,166,15.0,23.0,78,0.00,,,0.00,Wunderground v.1.15,2013-04-09 15:15:00,
2013-04-09 10:20:00,69.3,61.4,29.82,SW,215,17.0,20.0,76,0.00,,,0.00,Wunderground v.1.15,2013-04-09 15:20:00,
2013-04-09 10:25:00,69.7,61.8,29.82,SSW,200,17.0,20.0,76,0.00,,,0.00,Wunderground v.1.15,2013-04-09 15:25:00,
2013-04-09 10:30:00,70.0,62.1,29.82,South,169,16.0,19.0,76,0.00,,,0.00,Wunderground v.1.15,2013-04-09 15:30:00,
2013-04-09 10:35:00,70.2,61.9,29.82,SE,140,16.0,19.0,75,0.00,,,0.00,Wunderground v.1.15,2013-04-09 15:35:00,
2013-04-09 10:40:00,70.3,62.0,29.82,SE,141,15.0,17.0,75,0.00,,,0.00,Wunderground v.1.15,2013-04-09 15:40:00,
2013-04-09 10:45:00,70.5,61.4,29.82,South,174,15.0,17.0,73,0.00,,,0.00,Wunderground v.1.15,2013-04-09 15:45:00,
2013-04-09 10:50:00,71.0,62.7,29.82,SSE,153,15.0,23.0,75,0.00,,,0.00,Wunderground v.1.15,2013-04-09 15:50:00,
2013-04-09 10:55:00,71.4,62.3,29.82,SSE,147,16.0,23.0,73,0.00,,,0.00,Wunderground v.1.15,2013-04-09 15:55:00,
2013-04-09 11:00:00,71.6,62.5,29.82,SW,215,16.0,17.0,73,0.00,,,0.00,Wunderground v.1.15,2013-04-09 16:00:00,
2013-04-09 11:05:00,71.7,62.2,29.82,SSW,207,15.0,17.0,72,0.00,,,0.00,Wunderground v.1.15,2013-04-09 16:05:00,
2013-04-09 11:10:00,72.1,62.2,29.82,South,176,16.0,18.0,71,0.00,,,0.00,Wunderground v.1.15,2013-04-09 16:10:00,
2013-04-09 11:15:00,72.2,62.3,29.82,South,191,17.0,20.0,71,0.00,,,0.00,Wunderground v.1.15,2013-04-09 16:15:00,
2013-04-09 11:20:00,72.6,63.1,29.82,South,183,18.0,18.0,72,0.00,,,0.00,Wunderground v.1.15,2013-04-09 16:20:00,
2013-04-09 11:25:00,73.1,63.9,29.82,SW,214,17.0,18.0,73,0.00,,,0.00,Wunderground v.1.15,2013-04-09 16:25:00,
2013-04-09 11:30:00,73.2,63.2,29.82,SW,215,17.0,17.0,71,0.00,,,0.00,Wunderground v.1.15,2013-04-09 16:30:00,
2013-04-09 11:35:00,73.5,63.1,29.82,SSW,195,18.0,19.0,70,0.00,,,0.00,Wunderground v.1.15,2013-04-09 16:35:00,
2013-04-09 11:40:00,73.4,64.2,29.83,South,188,18.0,18.0,73,0.00,,,0.00,Wunderground v.1.15,2013-04-09 16:40:00,
2013-04-09 11:45:00,73.5,62.7,29.83,SW,219,17.0,22.0,69,0.00,,,0.00,Wunderground v.1.15,2013-04-09 16:45:00,
2013-04-09 11:50:00,73.5,62.7,29.83,SW,228,17.0,17.0,69,0.00,,,0.00,Wunderground v.1.15,2013-04-09 16:50:00,
2013-04-09 11:55:00,73.8,62.6,29.83,SW,222,18.0,18.0,68,0.00,,,0.00,Wunderground v.1.15,2013-04-09 16:55:00,
2013-04-09 12:00:00,73.5,62.7,29.83,South,190,18.0,19.0,69,0.00,,,0.00,Wunderground v.1.15,2013-04-09 17:00:00,
2013-04-09 12:05:00,73.2,62.4,29.83,South,184,18.0,19.0,69,0.00,,,0.00,Wunderground v.1.15,2013-04-09 17:05:00,
2013-04-09 12:10:00,73.2,62.4,29.83,SSW,208,19.0,20.0,69,0.00,,,0.00,Wunderground v.1.15,2013-04-09 17:10:00,
2013-04-09 12:15:00,73.1,62.3,29.83,SSW,211,19.0,20.0,69,0.00,,,0.00,Wunderground v.1.15,2013-04-09 17:15:00,
2013-04-09 12:20:00,73.7,62.5,29.82,SSW,204,18.0,18.0,68,0.00,,,0.00,Wunderground v.1.15,2013-04-09 17:20:00,
2013-04-09 12:25:00,74.1,62.4,29.82,SW,226,17.0,18.0,67,0.00,,,0.00,Wunderground v.1.15,2013-04-09 17:25:00,
2013-04-09 12:30:00,74.3,63.5,29.82,SW,232,19.0,19.0,69,0.00,,,0.00,Wunderground v.1.15,2013-04-09 17:30:00,
2013-04-09 13:05:00,74.7,63.0,29.82,SSW,203,17.0,-999.0,67,0.00,,,0.00,Wunderground v.1.15,2013-04-09 18:05:00,
2013-04-09 13:10:00,75.1,63.4,29.82,SSW,203,18.0,-999.0,67,0.00,,,0.00,Wunderground v.1.15,2013-04-09 18:10:00,
2013-04-09 13:15:00,74.7,62.6,29.82,SSW,203,18.0,-999.0,66,0.00,,,0.00,Wunderground v.1.15,2013-04-09 18:15:00,
2013-04-09 13:20:00,74.9,63.6,29.82,SSW,203,17.0,-999.0,68,0.00,,,0.00,Wunderground v.1.15,2013-04-09 18:20:00,
2013-04-09 13:25:00,75.1,62.5,29.82,SW,225,19.0,-999.0,65,0.00,,,0.00,Wunderground v.1.15,2013-04-09 18:25:00,
2013-04-09 13:30:00,75.1,63.4,29.82,SW,225,18.0,-999.0,67,0.00,,,0.00,Wunderground v.1.15,2013-04-09 18:30:00,
2013-04-09 13:35:00,75.1,63.0,29.82,SSW,203,14.0,-999.0,66,0.00,,,0.00,Wunderground v.1.15,2013-04-09 18:35:00,
2013-04-09 13:40:00,74.9,63.2,29.82,South,180,15.0,-999.0,67,0.00,,,0.00,Wunderground v.1.15,2013-04-09 18:40:00,
2013-04-09 13:45:00,74.9,62.8,29.82,SSW,203,14.0,-999.0,66,0.00,,,0.00,Wunderground v.1.15,2013-04-09 18:45:00,
2013-04-09 13:50:00,75.0,62.0,29.82,SSW,203,18.0,-999.0,64,0.00,,,0.00,Wunderground v.1.15,2013-04-09 18:50:00,
2013-04-09 13:55:00,75.4,63.2,29.82,SW,225,19.0,-999.0,66,0.00,,,0.00,Wunderground v.1.15,2013-04-09 18:55:00,
2013-04-09 14:00:00,75.6,63.0,29.82,SSW,203,17.0,-999.0,65,0.00,,,0.00,Wunderground v.1.15,2013-04-09 19:00:00,
2013-04-09 14:05:00,75.4,61.9,29.82,South,180,17.0,-999.0,63,0.00,,,0.00,Wunderground v.1.15,2013-04-09 19:05:00,
2013-04-09 14:10:00,75.2,62.2,29.82,SSW,203,15.0,-999.0,64,0.00,,,0.00,Wunderground v.1.15,2013-04-09 19:10:00,
2013-04-09 14:15:00,75.6,62.1,29.82,SSW,203,17.0,-999.0,63,0.00,,,0.00,Wunderground v.1.15,2013-04-09 19:15:00,
2013-04-09 14:20:00,75.7,62.7,29.81,SW,225,12.0,-999.0,64,0.00,,,0.00,Wunderground v.1.15,2013-04-09 19:20:00,
2013-04-09 14:25:00,75.9,62.8,29.81,SSW,203,15.0,-999.0,64,0.00,,,0.00,Wunderground v.1.15,2013-04-09 19:25:00,
2013-04-09 14:30:00,75.7,61.8,29.81,SSW,203,17.0,-999.0,62,0.00,,,0.00,Wunderground v.1.15,2013-04-09 19:30:00,
2013-04-09 14:35:00,75.8,62.3,29.81,SW,225,13.0,-999.0,63,0.00,,,0.00,Wunderground v.1.15,2013-04-09 19:35:00,
2013-04-09 14:40:00,75.3,61.4,29.82,SW,225,14.0,-999.0,62,0.00,,,0.00,Wunderground v.1.15,2013-04-09 19:40:00,
2013-04-09 14:45:00,75.7,61.8,29.82,SW,225,16.0,-999.0,62,0.00,,,0.00,Wunderground v.1.15,2013-04-09 19:45:00,
2013-04-09 14:50:00,75.9,61.9,29.81,SW,225,13.0,-999.0,62,0.00,,,0.00,Wunderground v.1.15,2013-04-09 19:50:00,
2013-04-09 14:55:00,76.5,62.5,29.81,SW,225,12.0,-999.0,62,0.00,,,0.00,Wunderground v.1.15,2013-04-09 19:55:00,
2013-04-09 15:00:00,76.7,62.2,29.81,SW,225,12.0,-999.0,61,0.00,,,0.00,Wunderground v.1.15,2013-04-09 20:00:00,
2013-04-09 15:05:00,77.0,61.6,29.81,WSW,248,13.0,-999.0,59,0.00,,,0.00,Wunderground v.1.15,2013-04-09 20:05:00,
2013-04-09 15:10:00,77.2,61.3,29.81,SW,225,11.0,-999.0,58,0.00,,,0.00,Wunderground v.1.15,2013-04-09 20:10:00,
2013-04-09 15:15:00,77.4,61.9,29.81,SW,225,13.0,-999.0,59,0.00,,,0.00,Wunderground v.1.15,2013-04-09 20:15:00,
2013-04-09 15:20:00,77.4,62.4,29.81,SW,225,11.0,-999.0,60,0.00,,,0.00,Wunderground v.1.15,2013-04-09 20:20:00,
2013-04-09 15:25:00,77.1,61.2,29.81,SW,225,13.0,-999.0,58,0.00,,,0.00,Wunderground v.1.15,2013-04-09 20:25:00,
2013-04-09 15:30:00,77.2,61.3,29.81,SW,225,12.0,-999.0,58,0.00,,,0.00,Wunderground v.1.15,2013-04-09 20:30:00,
2013-04-09 15:35:00,77.3,61.9,29.81,SW,225,12.0,-999.0,59,0.00,,,0.00,Wunderground v.1.15,2013-04-09 20:35:00,
2013-04-09 15:40:00,77.4,61.0,29.81,SW,225,15.0,-999.0,57,0.00,,,0.00,Wunderground v.1.15,2013-04-09 20:40:00,
2013-04-09 15:45:00,77.3,60.9,29.81,SW,225,15.0,-999.0,57,0.00,,,0.00,Wunderground v.1.15,2013-04-09 20:45:00,
2013-04-09 15:50:00,77.5,61.1,29.81,SW,225,18.0,-999.0,57,0.00,,,0.00,Wunderground v.1.15,2013-04-09 20:50:00,
2013-04-09 15:55:00,77.4,61.5,29.81,SW,225,13.0,-999.0,58,0.00,,,0.00,Wunderground v.1.15,2013-04-09 20:55:00,
2013-04-09 16:00:00,77.5,61.6,29.81,SW,225,17.0,-999.0,58,0.00,,,0.00,Wunderground v.1.15,2013-04-09 21:00:00,
2013-04-09 16:05:00,77.5,61.1,29.81,SW,225,14.0,-999.0,57,0.00,,,0.00,Wunderground v.1.15,2013-04-09 21:05:00,
2013-04-09 16:10:00,77.4,62.4,29.81,SW,225,13.0,-999.0,60,0.00,,,0.00,Wunderground v.1.15,2013-04-09 21:10:00,
2013-04-09 16:15:00,77.3,61.4,29.81,SW,225,15.0,-999.0,58,0.00,,,0.00,Wunderground v.1.15,2013-04-09 21:15:00,
2013-04-09 16:20:00,77.5,62.5,29.81,SW,225,11.0,-999.0,60,0.00,,,0.00,Wunderground v.1.15,2013-04-09 21:20:00,
2013-04-09 16:25:00,77.5,61.6,29.81,WSW,248,8.0,-999.0,58,0.00,,,0.00,Wunderground v.1.15,2013-04-09 21:25:00,
2013-04-09 16:30:00,77.6,61.7,29.81,WSW,248,10.0,-999.0,58,0.00,,,0.00,Wunderground v.1.15,2013-04-09 21:30:00,
2013-04-09 16:35:00,77.3,62.3,29.81,WSW,248,8.0,-999.0,60,0.00,,,0.00,Wunderground v.1.15,2013-04-09 21:35:00,
2013-04-09 16:40:00,77.0,61.1,29.81,SW,225,12.0,-999.0,58,0.00,,,0.00,Wunderground v.1.15,2013-04-09 21:40:00,
2013-04-09 16:45:00,77.2,61.8,29.81,SW,225,12.0,-999.0,59,0.00,,,0.00,Wunderground v.1.15,2013-04-09 21:45:00,
2013-04-09 16:50:00,77.6,61.7,29.81,SSW,203,10.0,-999.0,58,0.00,,,0.00,Wunderground v.1.15,2013-04-09 21:50:00,
2013-04-09 16:55:00,77.5,61.6,29.81,SW,225,10.0,-999.0,58,0.00,,,0.00,Wunderground v.1.15,2013-04-09 21:55:00,
2013-04-09 17:06:00,77.0,62.0,29.81,SW,222,12.0,12.0,60,0.00,,,0.00,Wunderground v.1.15,2013-04-09 22:06:00,
2013-04-09 17:07:00,77.7,62.7,29.81,SW,225,12.0,-999.0,60,0.00,,,0.00,Wunderground v.1.15,2013-04-09 22:07:00,
2013-04-09 17:10:00,76.6,62.1,29.81,South,187,12.0,13.0,61,0.00,,,0.00,Wunderground v.1.15,2013-04-09 22:10:00,
2013-04-09 17:15:00,76.1,62.6,29.81,South,188,13.0,13.0,63,0.00,,,0.00,Wunderground v.1.15,2013-04-09 22:15:00,
2013-04-09 17:20:00,75.8,61.8,29.82,SSW,203,12.0,12.0,62,0.00,,,0.00,Wunderground v.1.15,2013-04-09 22:20:00,
2013-04-09 17:25:00,75.7,63.1,29.82,SSW,204,10.0,12.0,65,0.00,,,0.00,Wunderground v.1.15,2013-04-09 22:25:00,
2013-04-09 17:30:00,75.7,62.2,29.82,SSW,205,11.0,13.0,63,0.00,,,0.00,Wunderground v.1.15,2013-04-09 22:30:00,
2013-04-09 17:35:00,76.0,62.5,29.82,SSE,162,13.0,13.0,63,0.00,,,0.00,Wunderground v.1.15,2013-04-09 22:35:00,
2013-04-09 17:45:00,75.5,62.5,29.82,SSW,208,11.0,13.0,64,0.00,,,0.00,Wunderground v.1.15,2013-04-09 22:45:00,
2013-04-09 17:50:00,75.2,62.6,29.82,SW,216,11.0,12.0,65,0.00,,,0.00,Wunderground v.1.15,2013-04-09 22:50:00,
2013-04-09 17:55:00,74.9,62.3,29.82,SW,219,11.0,12.0,65,0.00,,,0.00,Wunderground v.1.15,2013-04-09 22:55:00,
2013-04-09 18:00:00,74.8,62.2,29.82,SSW,192,9.0,10.0,65,0.00,,,0.00,Wunderground v.1.15,2013-04-09 23:00:00,
2013-04-09 18:10:00,74.5,62.8,29.83,SSW,211,9.0,9.0,67,0.00,,,0.00,Wunderground v.1.15,2013-04-09 23:10:00,
2013-04-09 18:20:00,74.2,62.5,29.83,SSW,207,8.0,8.0,67,0.00,,,0.00,Wunderground v.1.15,2013-04-09 23:20:00,
2013-04-09 18:25:00,74.1,62.4,29.83,SW,217,7.0,8.0,67,0.00,,,0.00,Wunderground v.1.15,2013-04-09 23:25:00,
2013-04-09 18:30:00,74.0,62.3,29.83,SW,222,8.0,9.0,67,0.00,,,0.00,Wunderground v.1.15,2013-04-09 23:30:00,
2013-04-09 18:35:00,73.8,62.2,29.83,SSW,207,8.0,9.0,67,0.00,,,0.00,Wunderground v.1.15,2013-04-09 23:35:00,
2013-04-09 18:40:00,73.7,62.5,29.83,SSW,212,7.0,9.0,68,0.00,,,0.00,Wunderground v.1.15,2013-04-09 23:40:00,
2013-04-09 18:45:00,73.7,62.5,29.83,SSW,200,8.0,9.0,68,0.00,,,0.00,Wunderground v.1.15,2013-04-09 23:45:00,
2013-04-09 18:55:00,73.4,62.6,29.83,SSW,194,6.0,7.0,69,0.00,,,0.00,Wunderground v.1.15,2013-04-09 23:55:00,
2013-04-09 19:00:00,73.3,62.5,29.83,SSW,195,6.0,6.0,69,0.00,,,0.00,Wunderground v.1.15,2013-04-10 00:00:00,
2013-04-09 19:05:00,73.1,62.7,29.83,South,170,5.0,6.0,70,0.00,,,0.00,Wunderground v.1.15,2013-04-10 00:05:00,
2013-04-09 19:10:00,73.0,62.6,29.83,SSE,158,4.0,5.0,70,0.00,,,0.00,Wunderground v.1.15,2013-04-10 00:10:00,
2013-04-09 19:15:00,72.6,62.7,29.83,SSE,164,5.0,5.0,71,0.00,,,0.00,Wunderground v.1.15,2013-04-10 00:15:00,
2013-04-09 19:20:00,72.1,62.6,29.83,SSE,148,5.0,5.0,72,0.00,,,0.00,Wunderground v.1.15,2013-04-10 00:20:00,
2013-04-09 19:25:00,71.9,62.4,29.83,SE,144,4.0,5.0,72,0.00,,,0.00,Wunderground v.1.15,2013-04-10 00:25:00,
2013-04-09 19:30:00,71.7,62.2,29.82,SE,144,4.0,4.0,72,0.00,,,0.00,Wunderground v.1.15,2013-04-10 00:30:00,
2013-04-09 19:35:00,71.3,62.2,29.82,SE,143,4.0,5.0,73,0.00,,,0.00,Wunderground v.1.15,2013-04-10 00:35:00,
2013-04-09 19:40:00,70.7,62.0,29.82,SE,141,5.0,5.0,74,0.00,,,0.00,Wunderground v.1.15,2013-04-10 00:40:00,
2013-04-09 19:45:00,70.3,61.6,29.82,SE,131,5.0,5.0,74,0.00,,,0.00,Wunderground v.1.15,2013-04-10 00:45:00,
2013-04-09 19:50:00,70.1,61.8,29.82,SE,134,5.0,5.0,75,0.00,,,0.00,Wunderground v.1.15,2013-04-10 00:50:00,
2013-04-09 19:55:00,69.8,61.9,29.83,SE,133,4.0,5.0,76,0.00,,,0.00,Wunderground v.1.15,2013-04-10 00:55:00,
2013-04-09 20:00:00,69.6,61.7,29.82,SE,129,4.0,4.0,76,0.00,,,0.00,Wunderground v.1.15,2013-04-10 01:00:00,
2013-04-09 20:05:00,69.5,62.0,29.83,SE,126,4.0,4.0,77,0.00,,,0.00,Wunderground v.1.15,2013-04-10 01:05:00,
2013-04-09 20:15:00,69.3,61.8,29.83,SE,124,4.0,4.0,77,0.00,,,0.00,Wunderground v.1.15,2013-04-10 01:15:00,
2013-04-09 20:20:00,69.2,61.7,29.83,ESE,117,4.0,4.0,77,0.00,,,0.00,Wunderground v.1.15,2013-04-10 01:20:00,
2013-04-09 20:25:00,69.0,61.9,29.83,ESE,122,4.0,4.0,78,0.00,,,0.00,Wunderground v.1.15,2013-04-10 01:25:00,
2013-04-09 20:30:00,68.8,61.7,29.83,SE,124,4.0,4.0,78,0.00,,,0.00,Wunderground v.1.15,2013-04-10 01:30:00,
2013-04-09 20:35:00,68.8,61.7,29.83,SE,133,4.0,4.0,78,0.00,,,0.00,Wunderground v.1.15,2013-04-10 01:35:00,
2013-04-09 20:40:00,68.8,61.7,29.84,SE,139,4.0,5.0,78,0.00,,,0.00,Wunderground v.1.15,2013-04-10 01:40:00,
2013-04-09 20:45:00,68.7,61.6,29.84,SE,146,4.0,5.0,78,0.00,,,0.00,Wunderground v.1.15,2013-04-10 01:45:00,
2013-04-09 20:50:00,68.7,61.6,29.85,SE,141,4.0,4.0,78,0.00,,,0.00,Wunderground v.1.15,2013-04-10 01:50:00,
2013-04-09 21:00:00,68.4,61.3,29.85,SE,145,4.0,4.0,78,0.00,,,0.00,Wunderground v.1.15,2013-04-10 02:00:00,
2013-04-09 21:05:00,68.4,61.3,29.85,SE,141,3.0,4.0,78,0.00,,,0.00,Wunderground v.1.15,2013-04-10 02:05:00,
2013-04-09 21:10:00,68.4,61.6,29.84,SE,134,4.0,4.0,79,0.00,,,0.00,Wunderground v.1.15,2013-04-10 02:10:00,
2013-04-09 21:15:00,68.2,61.4,29.85,SE,127,4.0,4.0,79,0.00,,,0.00,Wunderground v.1.15,2013-04-10 02:15:00,
2013-04-09 21:20:00,68.1,61.7,29.85,SE,134,4.0,4.0,80,0.00,,,0.00,Wunderground v.1.15,2013-04-10 02:20:00,
2013-04-09 21:25:00,68.1,61.7,29.85,SE,130,4.0,4.0,80,0.00,,,0.00,Wunderground v.1.15,2013-04-10 02:25:00,
2013-04-09 21:30:00,68.0,61.6,29.85,SE,128,4.0,5.0,80,0.00,,,0.00,Wunderground v.1.15,2013-04-10 02:30:00,
2013-04-09 21:35:00,67.9,61.1,29.85,SE,132,4.0,5.0,79,0.00,,,0.00,Wunderground v.1.15,2013-04-10 02:35:00,
2013-04-09 21:40:00,67.8,61.4,29.85,SE,132,4.0,4.0,80,0.00,,,0.00,Wunderground v.1.15,2013-04-10 02:40:00,
2013-04-09 21:45:00,67.8,61.4,29.85,SE,127,3.0,4.0,80,0.00,,,0.00,Wunderground v.1.15,2013-04-10 02:45:00,
2013-04-09 21:50:00,67.8,61.4,29.85,ESE,121,2.0,2.0,80,0.00,,,0.00,Wunderground v.1.15,2013-04-10 02:50:00,
2013-04-09 21:55:00,67.7,61.3,29.86,SE,124,2.0,4.0,80,0.00,,,0.00,Wunderground v.1.15,2013-04-10 02:55:00,
2013-04-09 22:00:00,67.3,61.3,29.86,SE,140,3.0,4.0,81,0.00,,,0.00,Wunderground v.1.15,2013-04-10 03:00:00,
2013-04-09 22:05:00,67.3,61.3,29.86,SE,146,4.0,4.0,81,0.00,,,0.00,Wunderground v.1.15,2013-04-10 03:05:00,
2013-04-09 22:10:00,67.3,61.3,29.86,SSE,148,4.0,4.0,81,0.00,,,0.00,Wunderground v.1.15,2013-04-10 03:10:00,
2013-04-09 22:15:00,67.1,61.1,29.86,SSE,149,4.0,5.0,81,0.00,,,0.00,Wunderground v.1.15,2013-04-10 03:15:00,
2013-04-09 22:20:00,67.1,61.4,29.86,SSE,148,5.0,5.0,82,0.00,,,0.00,Wunderground v.1.15,2013-04-10 03:20:00,
2013-04-09 22:25:00,67.2,61.5,29.85,SSE,150,6.0,6.0,82,0.00,,,0.00,Wunderground v.1.15,2013-04-10 03:25:00,
2013-04-09 22:30:00,67.4,61.7,29.86,SSE,156,6.0,6.0,82,0.00,,,0.00,Wunderground v.1.15,2013-04-10 03:30:00,
2013-04-09 22:35:00,67.5,61.8,29.85,South,170,5.0,6.0,82,0.00,,,0.00,Wunderground v.1.15,2013-04-10 03:35:00,
2013-04-09 22:40:00,67.4,61.7,29.86,South,172,4.0,4.0,82,0.00,,,0.00,Wunderground v.1.15,2013-04-10 03:40:00,
2013-04-09 22:45:00,67.2,61.5,29.86,SSW,200,3.0,4.0,82,0.00,,,0.00,Wunderground v.1.15,2013-04-10 03:45:00,
2013-04-09 22:55:00,67.0,61.3,29.85,SSE,160,2.0,2.0,82,0.00,,,0.00,Wunderground v.1.15,2013-04-10 03:55:00,
2013-04-09 23:00:00,67.0,61.3,29.85,SE,138,1.0,1.0,82,0.00,,,0.00,Wunderground v.1.15,2013-04-10 04:00:00,
2013-04-09 23:05:00,67.1,61.4,29.85,ESE,112,1.0,2.0,82,0.00,,,0.00,Wunderground v.1.15,2013-04-10 04:05:00,
2013-04-09 23:10:00,67.0,61.3,29.84,East,97,2.0,2.0,82,0.00,,,0.00,Wunderground v.1.15,2013-04-10 04:10:00,
2013-04-09 23:15:00,66.2,60.9,29.84,ENE,71,2.0,3.0,83,0.00,,,0.00,Wunderground v.1.15,2013-04-10 04:15:00,
2013-04-09 23:20:00,66.1,61.5,29.84,ENE,66,3.0,3.0,85,0.00,,,0.00,Wunderground v.1.15,2013-04-10 04:20:00,
2013-04-09 23:25:00,66.4,61.4,29.84,NNE,23,3.0,7.0,84,0.00,,,0.00,Wunderground v.1.15,2013-04-10 04:25:00,
2013-04-09 23:30:00,65.0,58.7,29.84,NNE,25,4.0,5.0,80,0.00,,,0.00,Wunderground v.1.15,2013-04-10 04:30:00,
2013-04-09 23:35:00,63.7,57.8,29.84,NE,42,6.0,6.0,81,0.00,,,0.00,Wunderground v.1.15,2013-04-10 04:35:00,
2013-04-09 23:40:00,62.8,56.9,29.84,NE,36,6.0,7.0,81,0.00,,,0.00,Wunderground v.1.15,2013-04-10 04:40:00,
2013-04-09 23:45:00,61.9,56.3,29.84,ENE,58,7.0,7.0,82,0.00,,,0.00,Wunderground v.1.15,2013-04-10 04:45:00,
2013-04-09 23:50:00,61.1,55.6,29.84,NE,45,7.0,7.0,82,0.00,,,0.00,Wunderground v.1.15,2013-04-10 04:50:00,
2013-04-09 23:55:00,60.3,54.8,29.84,NE,46,7.0,8.0,82,0.00,,,0.00,Wunderground v.1.15,2013-04-10 04:55:00,